Dickinson, ND

10:58 AM MDT on May 26, 2017 (GMT -0600)
Dickinson Municipal

Weather History for KDIK - March, 2013

Change the Weather History Date:

Saturday, March 9, 2013

  Actual Average Record
Temperature  
Mean Temperature 24 °F 27 °F  
Max Temperature 33 °F 38 °F 68 °F (2012)
Min Temperature 15 °F 16 °F -20 °F (2002)
Degree Days  
Heating Degree Days 41 38  
Month to date heating degree days 341 354  
Since 1 July heating degree days 6319 6648  
Cooling Degree Days 0 0  
Month to date cooling degree days 0 0  
Year to date cooling degree days 0 0  
Moisture  
Dew Point 23 °F    
Average Humidity 83    
Maximum Humidity 100    
Minimum Humidity 66    
Precipitation  
Precipitation T in 0.02 in 0.27 in (1918)
Month to date precipitation 0.22 0.15  
Year to date precipitation 0.30 0.78  
Sea Level Pressure  
Sea Level Pressure 29.97 in    
Wind  
Wind Speed 13 mph (NW)    
Max Wind Speed 28 mph    
Max Gust Speed 33 mph    
Visibility 5 miles    
Events Fog , Snow    
T = Trace of Precipitation, MM = Missing Value Source: NWS Daily Summary

Daily Weather History Graph

Daily Weather History Graph

Search for Another Location

Airport or City:

Trip Planner

Search our weather history database for the weather conditions in past years. The results will help you decide how hot, cold, wet, or windy it might be!

Date:

Astronomy

Mar. 09, 2013 Rise Set
Actual Time 6:15 AM MST 5:48 PM MST
Civil Twilight 5:44 AM MST 6:19 PM MST
Nautical Twilight 5:09 AM MST 6:54 PM MST
Astronomical Twilight 4:34 AM MST 7:29 PM MST
Moon 4:46 AM MST (3/9) 3:48 PM MST (3/9)
Length of Visible Light 12h 34m
Length of Day
11h 33m
Waning Crescent, 5% of the Moon is Illuminated
Mar 9
Waning Crescent
Mar 11
New
Mar 19
First Quarter
Mar 27
Full
Apr 2
Last Quarter

Hourly Weather History & Observations

Time (MST) Temp. Windchill Dew Point Humidity Pressure Visibility Wind Dir Wind Speed Gust Speed Precip Events Conditions
12:22 AM 26.6 °F 22.6 °F 24.8 °F 93% 29.89 in 5.0 mi North 3.5 mph - N/A   Overcast
12:56 AM 26.1 °F 20.5 °F 24.1 °F 92% 29.97 in 4.0 mi NNE 4.6 mph - N/A   Overcast
1:36 AM 26.6 °F 21.2 °F 24.8 °F 93% 29.86 in 4.0 mi NNE 4.6 mph - N/A   Overcast
1:56 AM 26.1 °F 21.9 °F 24.1 °F 92% 29.93 in 5.0 mi NNE 3.5 mph - N/A   Overcast
2:56 AM 24.1 °F - 21.9 °F 91% 29.93 in 3.0 mi Calm Calm - N/A   Scattered Clouds
3:06 AM 24.8 °F - 21.2 °F 86% 29.84 in 4.0 mi Calm Calm - N/A   Mostly Cloudy
3:56 AM 25.0 °F 19.3 °F 23.0 °F 92% 29.93 in 4.0 mi WNW 4.6 mph - N/A   Overcast
4:20 AM 24.8 °F 17.9 °F 23.0 °F 93% 29.84 in 3.0 mi NW 5.8 mph - N/A   Overcast
4:28 AM 24.8 °F 16.9 °F 23.0 °F 93% 29.84 in 2.5 mi NW 6.9 mph - N/A   Overcast
4:48 AM 24.8 °F 16.9 °F 23.0 °F 93% 29.85 in 1.2 mi NW 6.9 mph - N/A   Overcast
4:56 AM 24.1 °F 16.0 °F 23.0 °F 96% 29.94 in 0.8 mi NW 6.9 mph - N/A   Mist
5:52 AM 24.8 °F 16.1 °F 23.0 °F 93% 29.85 in 0.2 mi WNW 8.1 mph - N/A Fog Light Freezing Fog
5:56 AM 25.0 °F 17.1 °F 23.0 °F 92% 29.94 in 0.2 mi WNW 6.9 mph - N/A Fog Light Freezing Fog
6:27 AM 24.8 °F 14.6 °F 24.8 °F 100% 29.85 in 0.5 mi WNW 10.4 mph - N/A Fog Light Freezing Fog
6:35 AM 26.6 °F 16.2 °F 24.8 °F 93% 29.85 in 0.2 mi NW 11.5 mph - N/A Fog Light Freezing Fog
6:56 AM 26.1 °F 16.2 °F 25.0 °F 96% 29.94 in 0.5 mi WNW 10.4 mph - N/A Fog Light Freezing Fog
7:14 AM 26.6 °F 16.8 °F 24.8 °F 93% 29.85 in 1.0 mi NW 10.4 mph - N/A   Overcast
7:56 AM 28.0 °F 20.0 °F 26.1 °F 92% 29.95 in 2.0 mi NW 8.1 mph - N/A   Overcast
8:29 AM 28.4 °F 19.1 °F 26.6 °F 93% 29.87 in 3.0 mi WNW 10.4 mph - N/A   Overcast
8:56 AM 28.9 °F 19.8 °F 28.0 °F 96% 29.96 in 3.0 mi NW 10.4 mph - N/A   Overcast
9:28 AM 30.2 °F 19.3 °F 28.4 °F 93% 29.87 in 2.5 mi NW 15.0 mph - N/A   Overcast
9:37 AM 30.2 °F 20.8 °F 28.4 °F 93% 29.88 in 1.0 mi NNW 11.5 mph - N/A   Overcast
9:44 AM 30.2 °F 19.3 °F 28.4 °F 93% 29.88 in 0.5 mi NW 15.0 mph - N/A Fog Light Freezing Fog
9:56 AM 30.0 °F 19.1 °F 28.9 °F 96% 29.97 in 0.8 mi NW 15.0 mph - N/A   Overcast
10:07 AM 30.2 °F 19.3 °F 28.4 °F 93% 29.88 in 1.2 mi NW 15.0 mph - N/A   Overcast
10:25 AM 30.2 °F 18.9 °F 28.4 °F 93% 29.89 in 2.0 mi NW 16.1 mph - 0.00 in Snow Light Snow
10:36 AM 30.2 °F 20.2 °F 28.4 °F 93% 29.89 in 3.0 mi NW 12.7 mph - 0.00 in Snow Light Snow
10:56 AM 30.0 °F 18.3 °F 28.0 °F 92% 29.99 in 5.0 mi NW 17.3 mph 23.0 mph 0.00 in   Overcast
11:56 AM 28.9 °F 15.4 °F 26.1 °F 89% 29.99 in 7.0 mi NW 21.9 mph 26.5 mph N/A   Overcast
12:53 PM 30.2 °F 16.8 °F 24.8 °F 80% 29.90 in 10.0 mi NW 23.0 mph 32.2 mph N/A   Overcast
12:56 PM 30.9 °F 18.7 °F 25.0 °F 79% 29.99 in 10.0 mi NW 19.6 mph 32.2 mph N/A   Overcast
1:56 PM 32.0 °F 17.9 °F 23.0 °F 69% 30.00 in 10.0 mi NW 28.8 mph 32.2 mph N/A   Partly Cloudy
2:56 PM 32.0 °F 19.2 °F 23.0 °F 69% 30.04 in 10.0 mi NW 23.0 mph 29.9 mph N/A   Clear
3:56 PM 30.0 °F 17.9 °F 21.9 °F 72% 30.07 in 10.0 mi NW 18.4 mph - N/A   Clear
4:56 PM 28.0 °F 16.5 °F 19.0 °F 69% 30.10 in 10.0 mi NNW 15.0 mph 26.5 mph N/A   Clear
5:56 PM 25.0 °F 13.1 °F 19.0 °F 78% 30.14 in 10.0 mi NNW 13.8 mph - N/A   Scattered Clouds
6:56 PM 23.0 °F 8.7 °F 17.1 °F 78% 30.16 in 10.0 mi NW 18.4 mph 26.5 mph N/A   Clear
7:56 PM 21.0 °F 9.3 °F 16.0 °F 81% 30.19 in 10.0 mi NNW 11.5 mph - N/A   Clear
8:56 PM 19.0 °F 8.2 °F 14.0 °F 81% 30.23 in 10.0 mi NNW 9.2 mph - N/A   Clear
9:56 PM 18.0 °F 4.8 °F 12.9 °F 81% 30.25 in 10.0 mi NW 12.7 mph - N/A   Clear
10:56 PM 16.0 °F 1.7 °F 12.0 °F 84% 30.25 in 10.0 mi NW 13.8 mph - N/A   Clear
11:56 PM 15.1 °F 2.5 °F 12.0 °F 88% 30.26 in 9.0 mi NW 10.4 mph - N/A   Clear